Regional Weather Roundup
Issued by NWS Wakefield, VA

Home | Current Version | Previous Version | Graphics & Text | Print | Product List | Glossary On
Versions: 1 2 3 4 5 6 7 8 9 10 11 12 13 14 15 16 17 18 19 20 21 22 23 24 25 26 27 28 29 30 31 32 33 34 35 36 37 38 39 40 41 42 43 44 45 46 47 48 49 50
000
ASUS41 KAKQ 020014
RWRAKQ

REGIONAL WEATHER ROUNDUP
NATIONAL WEATHER SERVICE WAKEFIELD VA
800 PM EDT WED APR 01 2015

Note: "fair" indicates few or no clouds below 12,000 feet with no
significant weather and/or obstructions to visibility. * = Denotes
station may not report precipitation (e.g., rain,snow,etc.),
thunder or fog.

VAZ042-051-052>054-056-020100-
NORTHERN VIRGINIA

CITY           SKY/WX    TMP DP  RH WIND       PRES   REMARKS
WASH NATIONAL  CLEAR     56  27  32 N7        30.19R
DULLES         CLEAR     51  29  42 E5        30.17R
FORT BELVOIR   CLEAR     54  27  35 CALM      30.18R
QUANTICO       CLEAR     53  36  52 SE6       30.19R
FREDERICKSBRG* CLEAR     56  27  32 E5        30.18R
STAFFORD*      CLEAR     50  23  34 E5        30.22R
WARRENTON      CLEAR     50  34  55 SE5       30.17R
CULPEPER*      CLEAR     54  28  37 CALM      30.18R
MANASSAS*      CLEAR     55  25  30 CALM      30.17R
LEESBURG*      CLEAR     54  32  43 CALM      30.18R
WINCHESTER     CLEAR     52  19  28 E6        30.16R
FRONT ROYAL*   FAIR      54  25  32 CALM      30.15R
LURAY*         FAIR      52  28  40 NE3       30.15R
$$

VAZ048-049-060>072-079>083-020100-
CENTRAL AND SOUTH CENTRAL VIRGINIA

CITY           SKY/WX    TMP DP  RH WIND       PRES   REMARKS
RICHMOND       CLEAR     54  24  31 E6        30.19R
CHESTERFIELD*  NOT AVBL
PETERSBURG*    CLEAR     48  29  47 CALM      30.19R
HANOVER        CLEAR     49  28  44 CALM      30.20R
TAPPAHANNOCK*  CLEAR     53  19  26 CALM      30.20R
QUINTON*       FAIR      52  27  37 E6        30.19R
CHARLOTTSVILLE CLEAR     56  23  27 SE6       30.15R
GORDONSVILLE*  FAIR      54  25  32 E3        30.16R
ORANGE*        CLEAR     54  27  35 E3        30.18R
LOUISA*        CLEAR     48  30  49 E3        30.16R
BUMPASS*       FAIR      53  26  34 E3        30.17R
FARMVILLE*     CLEAR     58  23  26 E5        30.15R
CREWE*         FAIR      52  25  34 MISG      30.17R
FORT PICKETT*  FAIR      53  23  31 E6        30.17R
CHASE CITY*    FAIR      53  35  49 E3        30.16R
CLARKSVILLE*   FAIR      55  32  41 SE5       30.15R
SOUTH HILL*    CLEAR     52  32  47 CALM      30.23R
LAWRENCEVILLE* FAIR      54  27  35 CALM      30.18R
EMPORIA*       CLEAR     52  28  40 NE3       30.21R
$$

VAZ088>098-020100-
SOUTHEAST VIRGINIA

CITY           SKY/WX    TMP DP  RH WIND       PRES   REMARKS
NORFOLK        CLEAR     46  27  47 CALM      30.22R
VIRGINIA BEACH CLEAR     44  30  57 E6        30.23R
NORFOLK NAVAL  CLEAR     49  26  41 E5        30.24R
WEST POINT*    CLEAR     50  31  48 SE7       30.23R
SALUDA*        FAIR      44  31  60 CALM      30.21R
NEWPORT NEWS   NOT AVBL
LANGLEY AFB    CLEAR     46  27  48 SE5       30.22R
FORT EUSTIS    CLEAR     48  31  51 E3        30.21R
WILLIAMSBURG*  CLEAR     48  36  61 SE5       30.23R
HR EXEC AP*    FAIR      43  30  61 CALM      30.24R
FRANKLIN*      CLEAR     49  32  51 NE5       30.22R
WAKEFIELD      CLEAR     51  30  44 VRB3      30.21R
$$

VAZ020-022-025-037-045-020100-
WEST CENTRAL AND SOUTHWEST VIRGINIA

CITY           SKY/WX    TMP DP  RH WIND       PRES   REMARKS
STAUNTON*      CLEAR     55  22  27 CALM      30.16S
WAYNESBORO*    FAIR      52  24  32 CALM      30.14R
HOT SPRINGS VA CLEAR     50   0  12 CALM      30.14R
LYNCHBURG      CLEAR     57  27  31 SE6       30.15R
DANVILLE       CLEAR     60  31  33 SE3       30.14R
SOUTH BOSTON*  FAIR      58  27  30 CALM      30.15R
MARTINSVILLE   CLEAR     59  28  30 SE3       30.15R
ROANOKE        PTCLDY    60  16  18 NW5       30.14R
BLACKSBURG     CLEAR     52  17  25 CALM      30.17R
DUBLIN*        CLEAR     55  20  25 CALM      30.15R
MARION*        CLEAR     56  19  23 CALM      30.16R
HILLSVILLE*    CLEAR     58  15  19 N3        30.13S
RICHLANDS*     FAIR     N/A N/A N/A CALM      30.13S
WISE*          PTCLDY    57   3  11 CALM      30.14S
ABINGDON*      CLEAR     61  20  20 CALM      30.11S
$$

MDZ021>025-VAZ099-100-020100-
SOUTHERN MARYLAND AND THE DELMARVA PENINSULA

CITY           SKY/WX    TMP DP  RH WIND       PRES   REMARKS
PATUXENT RIVER CLEAR     49  26  41 S5        30.20R
BAY BRIDGE APT   N/A     52  27  37 N3        30.20R
LEONARDTOWN    CLEAR     46  28  49 SE3       30.22R
DOVER          CLEAR     49  28  45 NW5       30.14R
GEORGETOWN     CLEAR     47  29  49 S3        30.20R
EASTON         CLEAR     52  28  40 CALM      30.22
CAMBRIDGE      CLEAR     48  32  53 CALM      30.20R
SALISBURY      CLEAR     44  30  57 S8        30.20R
OCEAN CITY     CLEAR     42  31  64 SW7       30.21R
WALLOPS ISLAND CLEAR     40  30  67 S9        30.23R
ACCOMACK*      CLEAR     41  32  70 SE6       30.22S
$$

NCZ012>017-030>032-020100-
NORTH CENTRAL AND EASTERN NORTH CAROLINA

CITY           SKY/WX    TMP DP  RH WIND       PRES   REMARKS
ROANOKE RAPIDS FAIR      54  30  40 E3        30.19R
RALEIGH        PTCLDY    58  30  34 E7        30.17R
ELIZABETH CITY CLEAR     45  30  55 E6        30.24R
AHOSKIE*       CLEAR     50  30  46 CALM      30.21R
EDENTON*       CLEAR     46  37  68 E8        30.23R
CURRITUCK*     CLEAR     46  31  56 CALM      30.24R
KILL DEVIL HLS CLEAR     41  34  75 E3        30.23R
MANTEO         CLEAR     42  33  70 E8        30.24S
CAPE HATTERAS  CLEAR     41  30  65 NE5       30.24R
TARBORO*       FAIR      56  31  38 E3        30.20R
GOLDSBORO      CLEAR     55  32  41 E3        30.17R
WASHINGTON     CLEAR     53  32  44 E5        30.21R
GREENVILLE     CLEAR     55  30  38 CALM      30.21R
NEW BERN       CLEAR     54  37  52 E7        30.22R
WILMINGTON     CLEAR     54  44  69 E7        30.20R
$$

VAZ048-020100-
ELSEWHERE

CITY           SKY/WX    TMP DP  RH WIND       PRES   REMARKS
HARRISBURG PA  CLEAR     49  27  42 N5        30.17R
BALTIMORE      CLEAR     53  24  32 N3        30.18R
ANNAPOLIS      CLEAR     50  32  50 NW3       30.19R
ANDREWS AFB    CLEAR     48  26  42 NE5       30.18R
PHILADELPHIA   CLEAR     51  19  28 N10       30.19R
HENDERSON NC   CLEAR     56  24  29 E5        30.17R
GREENSBORO     PTCLDY    60  29  30 SE7       30.13R
ROCKY MOUNT    CLEAR     53  33  46 E3        30.19R
$$

VAZ100-020100-
MARINE

STATION/POSITION TIME  TEMP    WIND        PRES    WAVE   SWELL
                       AIR SEA DIR/SP/G            HT/PER HT/PER
                 (UTC) (F)     (DEG/KT/KT) (MB)    (FT/S) (FT/S)
BRANDYWINE LGT   2300   49 41  310/  5/  5 1021.6R
CAPE MAY NJ      2300   47 45  280/  7/  8 1021.1R
LEWES DE         2300   49 45  260/  2/  3 1021.7R
15NM E FENWICK I 2350   41 41              1022.2R   2/ 6
OCEAN-CITY-INLET 2300   42 44  210/ 12/ 13 1022.3R
WACHAPREAGUE VA  2300   44 52  180/  7/  9 1023.2R
THOMAS POINT MD  0000                        N/A
COVE POINT MD    2300   51      CALM  /  1 1021.9R
SOLOMONS ISLAND  2300      48                N/A
BISHOPS HEAD MD  2300          240/  5/  5   N/A
PINEY POINT MD   2312          180/  6/  7   N/A
CAMBRIDGE MD     2300   57 46     CALM     1021.6R
LEWISETTA VA     2300   50 49              1022.2R
RAPPAHANNOCK LGT 2300           30/  2/  2 1023.1R
STINGRAY PT      0000   46 46  110/  4/  4   N/A     0
YORK RVR RNG VA  2300   46     130/  4/  4 1022.3R
YORKTOWN VA      2300   48 48  120/  5/  6 1022.6R
DOMINION TERM VA 2300   47     100/  6/  8 1022.9R
KIPTOPEKE VA     2300      51  150/  7/  8   N/A
CHES BAY BRIDGE  2300   47 45  200/  3/  3 1022.6R
CAPE HENRY VA    2300   45     150/  5/  7 1021.9R
CHESAPEAKE LGHT  2300   42     150/  6/  6 1024.0R
WILLOUBY STN VA  2300   46     110/  5/  6 1023.5R
S CRANEY ISL VA  2300           50/  6/  7 1022.9R
CAPE HENRY BUOY  2328      42                N/A     4/ 7
1ST LANDING BUOY 0000   44     130/  8/ 10 1023.1R   1/ 4
OFFSHORE WE BUOY 2311      42                N/A     4/ 6   3/ 6
64NM E OF VA BCH 2350   46 53  350/  6/  8 1023.6R   4/ 7   3/ 7
DUCK PIER NC     2300   44 44  110/  5/  7 1022.8R
44056 DUCK FRF   2311      43                N/A     3/ 6
OREGON INLET NC  2300   43 47   30/  7/ 10 1023.6R
HATTERAS NC      2300   46 57   60/  7/ 11 1023.8R
CAPE LOOKOUT NC  0000   53      40/ 18/ 21 1022.8R
$$


USA.gov is the U.S. government's official web portal to all federal, state and local government web resources and services.